Flag for Canada Weather past 2 weeks in Burlington, Ontario, Canada

Now
74 °F

Mild.


Feels Like: 77 °F
Forecast: 57 / 66 °F
Wind: 6 mph from South

Location: Burlington Piers

Current Time: Jun 29, 2015 at 8:03:37 PM

Latest Report: Jun 29, 2015 at 7:00 PM


Visibility: N/A

Pressure: 29.84 "Hg

Humidity: 60%

Dew point: 59 °F

Location of BurlingtonLocation

Historic Weather in Burlington — Graph

°F

Burlington temperature yesterday

Maximum temperature yesterday: 61 °F (at 10:00 PM)
Minimum temperature yesterday: 54 °F (at 7:00 AM)
Average temperature yesterday: 56 °F

Past Weeks' High & Low Weather Summary

 TemperatureHumidityPressure
High80 °F (Jun 18, 7:00 PM)100% (Jun 14, 11:00 PM)30.18 "Hg (Jun 14, 11:00 PM)
Low54 °F (Jun 28, 7:00 AM)30% (Jun 24, 4:00 PM)29.63 "Hg (Jun 23, 5:00 AM)
Average64 °F76%29.93 "Hg
* Reported Jun 14 7:00 PM — Jun 29 7:00 PM, Burlington, Weather by CustomWeather, © 2015

Note: Actual official high and low records may vary slightly from our data, if they occured in-between our weather recording intervals... More about our weather records

Advertising

Burlington weather history for previous 24 hours

 ConditionsComfort  
Time TempWeatherWind HumidityBarometerVisibility
7:00 PM
Mon, Jun 29
74 °FMild.6 mph60%29.84 "HgN/A
6:00 PM74 °FMild.13 mph51%29.85 "HgN/A
5:00 PM68 °FMild.13 mph69%29.85 "HgN/A
4:00 PM65 °FMild.12 mph76%29.87 "HgN/A
3:00 PM65 °FMild.13 mph77%29.88 "HgN/A
2:00 PM64 °FMild.12 mph79%29.88 "HgN/A
1:00 PM64 °FMild.9 mph77%29.89 "HgN/A
12:00 PM63 °FMild.8 mph79%29.90 "HgN/A
11:00 AM62 °FCool.8 mph83%29.90 "HgN/A
10:00 AM61 °FCool.6 mph83%29.90 "HgN/A
9:00 AM62 °FCool.3 mph81%29.89 "HgN/A
8:00 AM58 °FCool.5 mph87%29.88 "HgN/A
7:00 AM59 °FCool.6 mph79%29.86 "HgN/A
6:00 AM59 °FCool.6 mph86%29.85 "HgN/A
5:00 AM60 °FCool.7 mph86%29.85 "HgN/A
4:00 AM60 °FCool.6 mph86%29.84 "HgN/A
3:00 AM60 °FCool.5 mph87%29.84 "HgN/A
2:00 AM60 °FCool.5 mph87%29.83 "HgN/A
1:00 AM60 °FCool.8 mph87%29.83 "HgN/A
12:00 AM61 °FCool.3 mph86%29.81 "HgN/A
11:00 PM
Sun, Jun 28
61 °FCool.3 mph87%29.81 "HgN/A
10:00 PM61 °FCool.3 mph89%29.80 "HgN/A
9:00 PM60 °FCool.3 mph93%29.79 "HgN/A
8:00 PM60 °FCool.2 mph91%29.78 "HgN/A
Weather by CustomWeather, © 2015

See weather overviewHow to use our weather pages